Tracking 17938 objects as of 21-February-2017
HD Live streaming from Space Station
objects crossing your sky now

ASTRA 1D

Track ASTRA 1D now!
ASTRA 1D is classified as:


NORAD ID: 23331
Int'l Code: 1994-070A
Perigee: 35,775.5 km
Apogee: 35,810.4 km
Inclination: 7.4 °
Period: 1,436.1 minutes
Semi major axis: 42163 km
RCS: 75.2376 m2 (large)
Launch date: November 1, 1994
Source: Luxembourg (LUXE)
Launch site: FRENCH GUIANA (FRGUI)

Primarily backup for Astra 1B and 1C; 18 Ku-band transponders; continental Europe.
Your satellite tracking list
Your tracking list is empty





NASA's NSSDC Master Catalog

Two Line Element Set (TLE):
1 23331U 94070A   17051.43457647 -.00000293  00000-0  00000+0 0  9990
2 23331   7.3849  50.1449 0004136 270.0710 299.4494  1.00274591 82032
Source of the keplerian elements: AFSPC